Temperature
-1 -0 -1 -1 -1 -1 -1 -1 -1 -0 -1 -0 -2 -2 -2 -2 -2 -2 -2 -1 -1 -2 -2 -2 -2 -2 -2 -2 -2 -2 -2 -2 -1 -1 -1 -2 -2 -2 -1 -1 -1 -1 -1 -1
-1 -1 -1 -1 -1 -1 -1 -1 -2 -2 -2 -2 -3 -2 -3 -3 -3 -3 -2 -2 -2 -2 -2 -3 -3 -3 -3 -3 -2 -3 -3 -2 -2 -2 -2 -2 -2 -2 -2 -2 -2 -2 -2 -2
-1 -2 -2 -2 -2 -2 -2 -3 -3 -2 -2 -3 -4 -4 -3 -3 -3 -3 -2 -2 -3 -3 -3 -3 -3 -3 -3 -3 -3 -3 -3 -3 -3 -3 -3 -3 -3 -3 -3 -3 -2 -2 -2 -2
-2 -2 -1 -1 -3 -2 -2 -3 -4 -3 -4 -4 -4 -3 -3 -2 -3 -3 -3 -3 -3 -3 -4 -4 -4 -4 -4 -4 -4 -4 -4 -4 -4 -3 -3 -3 -3 -3 -3 -3 -3 -3 -3 -3
-3 -3 -2 -2 -3 -4 -4 -3 -4 -4 -5 -5 -5 -5 -4 -3 -3 -3 -4 -3 -4 -4 -4 -4 -4 -4 -4 -4 -4 -4 -4 -4 -4 -4 -4 -4 -4 -4 -4 -4 -3 -4 -4 -4
-3 -3 -2 -2 -4 -5 -4 -3 -4 -5 -5 -5 -6 -5 -5 -4 -4 -4 -4 -4 -4 -4 -5 -5 -5 -5 -5 -5 -5 -5 -5 -4 -4 -4 -4 -4 -4 -4 -4 -4 -4 -4 -4 -4
-4 -4 -3 -4 -5 -5 -3 -3 -5 -6 -6 -6 -6 -5 -5 -5 -5 -5 -5 -5 -5 -5 -5 -5 -5 -6 -5 -5 -5 -5 -5 -5 -5 -5 -5 -5 -5 -5 -5 -5 -5 -5 -5 -5
-4 -4 -3 -6 -6 -5 -5 -5 -6 -6 -6 -6 -6 -6 -6 -6 -6 -6 -6 -6 -6 -6 -6 -6 -6 -6 -6 -6 -6 -6 -6 -6 -6 -6 -6 -6 -6 -6 -6 -6 -6 -5 -5 -5
-5 -4 -5 -6 -6 -5 -5 -6 -6 -6 -6 -6 -7 -7 -7 -7 -7 -7 -6 -6 -6 -6 -6 -7 -7 -7 -7 -7 -7 -7 -6 -6 -6 -6 -6 -6 -7 -7 -6 -6 -6 -6 -6 -6
-7 -6 -7 -6 -6 -6 -6 -6 -6 -6 -6 -6 -7 -7 -7 -7 -7 -7 -7 -7 -7 -7 -7 -7 -7 -7 -7 -7 -7 -7 -7 -7 -7 -7 -7 -7 -7 -7 -7 -7 -7 -7 -7 -7
-8 -8 -8 -7 -6 -6 -6 -6 -6 -7 -7 -7 -7 -7 -7 -7 -7 -8 -8 -8 -8 -8 -8 -8 -8 -8 -8 -8 -8 -8 -8 -8 -7 -7 -7 -7 -8 -8 -8 -8 -8 -8 -8 -7
-7 -7 -8 -7 -6 -6 -7 -7 -7 -7 -7 -7 -7 -8 -8 -8 -8 -8 -8 -8 -8 -8 -8 -8 -8 -8 -8 -8 -8 -8 -8 -8 -8 -8 -8 -8 -8 -8 -8 -8 -8 -8 -8 -8
-7 -7 -7 -7 -7 -7 -7 -7 -8 -8 -8 -8 -8 -8 -8 -9 -9 -9 -9 -9 -9 -9 -9 -9 -9 -9 -9 -9 -9 -9 -9 -9 -9 -9 -9 -9 -9 -9 -9 -9 -9 -9 -9 -9
-7 -8 -8 -8 -8 -8 -8 -8 -8 -8 -9 -9 -9 -9 -9 -9 -9 -9 -9 -9 -9 -9 -10 -10 -10 -10 -10 -10 -9 -9 -9 -9 -9 -10 -9 -10 -10 -10 -10 -10 -10 -9 -9 -9
-8 -9 -9 -9 -9 -9 -9 -9 -9 -9 -9 -9 -10 -10 -10 -10 -10 -10 -10 -10 -10 -10 -10 -10 -10 -10 -10 -10 -10 -10 -10 -10 -10 -10 -10 -10 -10 -10 -10 -10 -10 -10 -10 -10
-9 -9 -9 -9 -9 -10 -10 -10 -10 -10 -10 -10 -10 -10 -10 -10 -10 -10 -10 -11 -11 -11 -11 -11 -11 -11 -11 -11 -11 -11 -11 -11 -11 -11 -11 -11 -11 -11 -11 -11 -11 -11 -11 -11
-11 -11 -10 -10 -10 -10 -10 -10 -10 -11 -11 -11 -11 -11 -11 -11 -11 -11 -11 -11 -11 -11 -11 -11 -11 -11 -11 -11 -11 -11 -11 -11 -11 -11 -11 -11 -11 -12 -12 -12 -11 -11 -11 -11
-11 -11 -11 -11 -11 -11 -11 -11 -11 -11 -11 -11 -11 -11 -11 -11 -12 -12 -12 -12 -12 -12 -12 -12 -12 -12 -12 -12 -12 -12 -12 -12 -12 -12 -12 -12 -12 -12 -12 -12 -12 -12 -12 -12
-11 -11 -11 -11 -11 -11 -11 -11 -11 -11 -12 -12 -12 -12 -12 -12 -12 -12 -12 -12 -12 -12 -12 -12 -12 -12 -12 -12 -12 -12 -12 -12 -12 -12 -12 -12 -12 -12 -12 -12 -12 -12 -12 -12
-11 -11 -11 -12 -12 -12 -12 -12 -12 -12 -12 -12 -12 -12 -12 -12 -13 -13 -13 -13 -13 -13 -13 -13 -13 -13 -13 -13 -13 -13 -13 -13 -13 -13 -13 -13 -13 -13 -13 -13 -13 -13 -13 -13
-12 -12 -12 -12 -12 -12 -12 -12 -12 -12 -13 -13 -13 -13 -13 -13 -13 -13 -13 -13 -13 -13 -13 -13 -13 -13 -13 -13 -13 -13 -13 -13 -13 -13 -13 -13 -13 -13 -13 -13 -13 -13 -13 -13
-13 -13 -13 -13 -13 -13 -13 -13 -13 -13 -13 -13 -13 -14 -14 -14 -14 -14 -14 -14 -14 -14 -14 -14 -14 -14 -14 -14 -14 -14 -14 -14 -14 -14 -14 -14 -14 -14 -14 -14 -14 -14 -14 -14
-14 -14 -14 -14 -13 -13 -13 -14 -14 -14 -14 -14 -14 -14 -14 -14 -14 -14 -14 -14 -14 -14 -15 -14 -15 -15 -15 -14 -14 -14 -14 -14 -14 -14 -14 -14 -15 -15 -15 -14 -14 -14 -14 -14
-14 -14 -14 -14 -14 -14 -14 -14 -14 -14 -14 -14 -15 -15 -15 -15 -15 -15 -15 -15 -15 -15 -15 -15 -15 -15 -15 -15 -15 -15 -15 -15 -15 -15 -15 -15 -15 -15 -15 -15 -15 -15 -15 -15
-15 -15 -15 -14 -14 -15 -15 -15 -15 -15 -15 -15 -15 -15 -15 -15 -15 -15 -15 -15 -15 -15 -15 -15 -15 -16 -16 -15 -15 -15 -15 -15 -15 -16 -16 -15 -15 -15 -15 -15 -15 -15 -15 -15
-15 -15 -15 -15 -15 -15 -15 -15 -15 -15 -15 -15 -15 -15 -16 -16 -16 -16 -16 -16 -16 -16 -16 -16 -16 -16 -16 -16 -16 -16 -16 -16 -16 -16 -16 -16 -16 -16 -16 -16 -16 -16 -15 -15
-16 -16 -16 -16 -16 -16 -16 -16 -16 -16 -16 -16 -16 -16 -16 -16 -16 -16 -16 -16 -16 -16 -16 -16 -16 -16 -16 -16 -16 -16 -16 -16 -16 -16 -16 -16 -16 -16 -16 -16 -16 -16 -16 -16
Wind_Speed
8 7 5 7 8 8 11 11 11 12 12 14 9 7 6 5 5 4 4 4 4 4 3 3 3 3 3 3 3 2 2 2 3 3 2 2 2 2 2 2 3 3 4 4
7 6 6 9 10 11 12 11 12 13 16 10 6 4 5 6 6 6 6 6 5 4 4 4 4 4 3 3 3 2 2 3 3 2 2 2 2 2 2 2 2 3 4 4
6 4 3 9 10 10 7 8 9 13 14 6 6 7 8 8 7 7 7 6 5 5 5 5 4 4 4 4 3 2 2 2 2 2 2 2 3 2 3 3 3 3 4 4
3 1 9 8 2 6 9 10 10 9 8 7 8 8 7 6 5 6 5 5 5 4 4 4 3 3 3 2 2 2 2 3 3 2 3 3 3 3 3 3 3 3 3 4
3 5 9 7 3 3 5 8 7 9 9 7 3 4 5 3 3 4 4 4 4 4 3 3 2 2 1 1 2 2 2 3 3 3 3 3 3 3 3 3 3 3 3 4
4 5 7 6 2 1 2 7 3 5 7 5 0 3 6 3 4 4 3 3 3 3 2 2 2 1 1 2 2 3 3 3 3 3 3 4 4 3 2 2 3 3 4 4
7 7 8 5 2 3 4 6 4 3 4 3 4 5 4 4 4 3 3 3 2 2 2 2 1 0 1 2 3 3 3 2 2 3 3 3 2 2 2 2 2 2 3 3
5 6 9 2 4 6 6 3 2 2 2 3 3 3 4 4 3 3 3 3 2 2 2 2 1 0 1 3 3 2 2 2 2 2 2 1 1 1 2 2 2 3 3 3
7 7 3 3 4 3 2 3 3 3 3 2 3 4 4 4 4 3 3 2 2 1 2 2 2 1 1 3 2 2 2 2 2 1 1 1 1 1 1 2 2 2 2 3
5 7 4 5 4 3 2 3 4 4 3 3 3 4 4 4 4 3 3 2 1 1 2 3 3 2 2 2 2 1 1 2 1 1 1 1 1 1 1 2 2 2 3 3
6 6 5 4 4 4 4 4 3 3 3 3 2 3 3 3 3 3 3 2 1 1 2 3 3 3 3 2 1 1 1 1 1 1 0 1 1 1 2 2 3 3 3 3
7 4 4 5 3 3 3 4 4 3 3 2 2 3 3 3 3 2 2 2 2 2 2 3 3 3 3 2 1 1 1 1 1 1 1 1 1 2 3 3 4 5 5 4
6 4 4 5 4 2 3 3 3 2 2 2 2 2 2 3 2 2 2 2 2 2 2 2 3 3 3 3 2 1 1 1 1 1 1 1 1 1 2 3 3 4 4 4
4 2 4 3 3 3 2 2 2 1 1 1 2 2 2 2 2 2 2 2 2 1 2 2 2 3 4 3 2 2 2 2 2 1 1 1 1 1 1 1 2 2 3 4
4 3 4 3 3 2 1 1 1 2 2 2 2 2 2 2 2 3 2 2 2 2 2 2 3 4 3 3 2 2 2 1 1 1 1 1 1 1 1 1 1 2 2 3
4 3 2 2 3 3 2 1 2 3 2 3 3 2 2 2 2 2 2 2 1 2 2 2 3 3 3 2 2 2 2 3 3 1 1 1 1 1 1 1 1 2 2 2
1 2 2 3 4 4 3 3 3 3 3 3 3 3 2 2 2 2 2 2 2 2 3 3 3 3 3 2 1 1 1 2 3 2 1 1 1 1 1 1 2 2 2 3
3 4 4 4 4 4 4 3 3 3 3 3 2 1 1 1 2 3 2 2 3 3 4 3 3 3 2 2 1 1 1 1 1 1 1 1 1 1 1 2 2 2 3 3
2 2 3 3 3 2 3 3 3 2 2 1 1 2 2 2 2 2 2 2 2 4 4 4 5 3 2 3 2 1 1 1 1 1 1 2 3 2 1 2 2 2 2 2
2 2 2 2 2 1 2 2 2 2 2 1 1 1 2 2 2 2 1 2 3 3 3 3 3 3 2 2 2 0 0 0 1 1 1 1 2 2 2 2 2 2 2 2
3 3 2 2 3 3 2 2 1 2 2 1 1 2 3 2 2 1 1 3 4 3 3 4 3 2 2 2 2 1 0 1 1 1 1 2 2 2 2 2 2 3 3 3
2 2 3 3 2 3 3 2 1 2 2 1 1 2 2 2 2 2 2 3 3 5 3 2 2 3 3 2 1 0 0 1 1 1 1 2 2 2 2 2 2 3 3 3
2 2 2 2 2 2 3 2 2 1 2 2 2 2 2 2 2 2 3 3 2 4 3 2 4 5 5 2 1 0 1 1 2 2 2 2 2 2 3 3 3 3 3 3
2 2 2 2 2 2 3 3 3 2 2 2 2 2 2 2 2 2 2 4 5 5 3 4 6 6 5 2 1 1 1 2 2 2 2 2 2 3 3 3 3 3 3 4
2 2 2 2 2 2 3 3 3 2 2 2 3 2 2 1 2 2 2 3 5 5 3 4 6 6 3 2 1 2 2 2 3 3 2 3 3 3 3 3 4 4 4 4
2 2 2 2 2 2 2 2 2 2 2 2 3 2 2 2 2 2 2 2 3 4 3 3 3 4 2 2 2 2 3 4 4 4 3 3 4 4 4 4 5 4 4 5
2 2 2 2 2 2 2 2 2 2 2 2 3 3 2 2 2 2 2 2 2 2 2 2 3 2 2 2 3 3 3 3 3 4 4 4 4 4 5 5 5 5 5 6
Wind_Direction
250 255 243 249 247 220 213 220 230 250 254 265 267 265 270 277 280 281 279 280 276 271 266 265 272 275 277 285 286 279 267 270 269 269 268 255 247 251 256 253 244 225 217 217
267 257 245 262 255 236 233 236 242 261 269 267 275 271 274 273 268 264 267 270 271 272 274 268 265 269 274 278 284 269 252 263 273 272 270 254 246 246 249 255 258 227 219 216
266 284 300 263 240 223 225 224 216 241 254 272 281 272 263 265 257 253 264 268 265 266 264 266 262 260 257 267 279 259 249 262 266 259 258 257 253 244 244 251 256 238 225 217
258 337 249 252 195 209 232 245 229 242 261 264 262 275 277 261 243 264 272 272 272 270 273 278 271 267 270 276 268 251 246 257 260 253 255 258 246 242 245 252 243 245 239 227
213 249 269 281 244 193 219 266 233 237 260 273 301 322 290 258 258 266 271 275 272 271 273 274 274 268 263 275 265 246 245 248 250 248 253 252 248 249 249 246 251 252 245 232
209 238 250 255 248 209 148 273 262 229 252 265 9 284 274 299 309 301 302 298 289 295 298 282 287 282 247 261 259 256 254 254 252 248 248 245 245 247 254 251 253 257 258 243
224 240 262 258 236 130 189 261 307 268 264 250 227 243 277 307 314 310 305 303 307 312 307 291 294 266 259 268 268 276 282 265 256 250 251 248 248 248 238 254 253 249 257 262
204 228 253 199 146 188 230 296 302 289 277 265 271 284 292 301 305 308 311 321 330 331 322 323 315 232 263 279 289 299 291 275 266 259 261 264 246 256 238 228 237 245 246 258
208 229 263 191 207 231 261 280 286 286 283 269 276 280 293 299 299 304 306 315 331 322 325 331 324 287 270 295 309 309 302 289 278 274 268 247 222 232 239 224 226 247 244 248
259 263 267 263 266 285 284 279 291 289 284 279 275 280 293 295 299 307 312 309 326 335 329 325 327 322 299 308 314 308 300 308 299 262 284 284 255 232 227 232 232 243 248 248
257 280 307 277 250 262 280 283 289 299 288 272 264 277 286 293 298 304 310 320 323 304 305 311 324 324 327 329 340 342 329 320 325 321 263 279 281 253 248 245 237 236 238 237
241 240 234 268 266 268 275 280 276 285 296 301 272 273 286 294 299 306 317 336 339 330 320 320 330 330 337 345 349 345 333 332 326 322 311 298 320 329 319 294 292 287 283 272
249 268 256 272 286 290 278 285 287 277 268 297 312 302 305 312 320 332 337 339 323 318 324 335 341 339 337 340 343 341 320 316 313 316 312 310 302 302 323 331 325 316 311 306
262 274 280 277 283 308 304 307 317 330 337 338 327 336 338 331 332 330 321 315 321 340 343 344 345 334 334 341 345 348 341 323 325 316 300 289 282 273 269 285 312 318 322 318
289 273 263 286 303 316 318 336 348 335 342 342 341 331 327 319 311 312 325 349 8 4 348 347 339 329 338 342 345 344 341 336 333 328 315 296 291 285 279 288 294 311 332 333
311 319 300 286 291 302 307 302 296 297 306 308 310 308 305 305 311 327 348 12 5 328 322 324 318 323 335 343 347 348 335 331 341 343 340 340 330 308 307 304 302 302 304 308
291 301 301 299 297 298 288 278 271 274 281 282 287 300 315 334 343 340 338 339 325 315 317 312 312 325 331 337 342 330 335 336 339 350 350 327 318 306 299 295 293 296 292 295
242 253 254 256 264 281 293 290 284 281 276 279 295 304 296 284 285 298 317 339 347 339 326 316 318 323 326 328 327 328 349 345 347 341 338 327 318 308 294 288 289 294 301 309
297 289 287 278 268 268 283 293 296 296 296 291 281 272 268 272 283 299 323 335 326 316 315 314 321 332 330 317 327 347 348 343 339 340 338 322 328 334 320 301 293 293 297 300
342 338 330 326 325 304 295 302 306 308 304 290 282 291 296 295 297 302 306 289 281 283 295 311 320 323 317 307 321 341 320 308 314 323 329 326 318 314 312 310 307 302 301 296
339 342 344 338 331 329 318 310 310 304 308 299 260 271 281 293 298 290 295 301 310 309 307 314 329 322 317 316 320 8 318 293 293 297 299 300 303 306 307 307 308 306 301 298
333 341 338 333 330 330 329 321 305 301 316 317 300 292 298 303 303 296 274 273 298 317 333 322 317 312 322 329 15 18 312 296 293 295 294 290 288 291 296 299 298 299 299 298
326 324 325 326 320 316 329 338 325 310 302 296 290 284 282 283 286 292 303 308 305 310 326 312 311 318 326 349 21 343 305 295 289 284 281 278 275 277 282 287 289 291 292 292
339 337 330 330 339 356 346 334 329 320 303 299 293 285 283 296 301 285 283 305 318 319 324 316 324 328 339 16 11 334 309 297 289 283 282 282 281 280 279 280 284 286 285 284
339 336 341 352 353 337 321 324 333 334 333 325 318 313 299 281 279 296 302 303 313 328 333 325 330 337 355 359 329 305 296 286 280 281 278 281 282 280 278 277 276 277 279 278
336 331 324 321 320 318 321 326 327 325 326 325 327 329 323 313 304 306 312 317 316 330 337 333 332 333 337 325 311 300 294 298 304 301 290 284 283 282 281 280 280 276 273 270
340 339 338 342 338 330 325 322 317 318 319 311 316 324 327 331 332 329 329 330 329 331 328 326 324 321 315 312 309 305 301 297 294 290 287 282 280 279 278 275 275 274 273 270
Height
1477 1475 1476 1476 1474 1476 1476 1474 1472 1463 1463 1455 1456 1456 1455 1454 1453 1452 1452 1451 1451 1451 1451 1450 1450 1451 1451 1451 1452 1452 1452 1453 1453 1454 1455 1456 1457 1458 1459 1460 1460 1461 1463 1464
1476 1473 1473 1472 1469 1469 1469 1468 1467 1464 1458 1452 1453 1453 1452 1451 1450 1449 1448 1448 1448 1448 1447 1447 1447 1447 1447 1447 1448 1448 1448 1449 1449 1450 1451 1452 1452 1453 1454 1455 1456 1457 1458 1459
1474 1473 1471 1468 1462 1463 1463 1462 1461 1458 1451 1451 1451 1450 1448 1447 1446 1446 1445 1445 1444 1444 1444 1444 1444 1444 1444 1444 1444 1444 1444 1445 1445 1446 1447 1447 1448 1449 1450 1450 1451 1452 1453 1454
1475 1476 1471 1456 1455 1455 1455 1454 1454 1451 1448 1448 1447 1446 1444 1444 1443 1443 1442 1442 1441 1441 1441 1441 1441 1440 1440 1440 1440 1440 1441 1441 1442 1442 1443 1443 1444 1444 1445 1446 1447 1447 1448 1450
1475 1473 1464 1457 1455 1455 1456 1451 1448 1447 1445 1445 1445 1443 1441 1441 1441 1440 1440 1439 1438 1438 1438 1437 1437 1437 1436 1436 1436 1436 1437 1437 1438 1438 1438 1439 1439 1440 1441 1442 1442 1443 1444 1445
1473 1470 1461 1452 1452 1451 1453 1450 1444 1443 1442 1442 1443 1445 1439 1438 1437 1436 1436 1435 1435 1435 1434 1434 1433 1433 1433 1432 1432 1432 1433 1433 1434 1434 1434 1434 1435 1436 1437 1437 1438 1439 1440 1441
1470 1467 1457 1452 1451 1451 1454 1446 1443 1441 1441 1441 1441 1440 1438 1435 1434 1434 1433 1432 1432 1431 1431 1431 1430 1430 1429 1429 1428 1429 1429 1429 1429 1430 1430 1430 1431 1431 1432 1433 1433 1434 1435 1436
1466 1464 1455 1449 1450 1450 1446 1443 1441 1440 1439 1438 1437 1436 1434 1433 1432 1431 1430 1429 1428 1428 1428 1427 1427 1426 1426 1426 1425 1425 1425 1425 1425 1425 1426 1426 1426 1427 1427 1428 1429 1429 1430 1431
1456 1451 1446 1445 1444 1443 1443 1441 1440 1439 1437 1436 1435 1433 1432 1431 1430 1429 1428 1427 1426 1426 1425 1424 1424 1423 1422 1422 1422 1421 1421 1421 1421 1421 1422 1423 1423 1423 1423 1424 1424 1425 1425 1425
1453 1445 1444 1442 1441 1441 1441 1439 1438 1437 1436 1434 1433 1431 1430 1429 1428 1427 1426 1425 1424 1423 1422 1421 1421 1420 1420 1419 1419 1418 1417 1417 1417 1418 1418 1419 1420 1420 1420 1420 1420 1421 1421 1421
1449 1444 1441 1439 1439 1439 1438 1437 1435 1435 1434 1433 1431 1429 1428 1427 1426 1425 1424 1423 1422 1421 1420 1419 1418 1418 1417 1416 1416 1415 1415 1414 1414 1415 1415 1416 1416 1417 1416 1417 1418 1418 1417 1418
1443 1440 1440 1437 1436 1436 1435 1434 1433 1432 1430 1430 1429 1427 1426 1425 1424 1423 1422 1421 1420 1419 1418 1417 1416 1415 1415 1414 1414 1413 1412 1412 1412 1412 1412 1412 1412 1413 1413 1414 1414 1415 1415 1415
1438 1437 1436 1434 1434 1433 1432 1431 1430 1429 1428 1427 1426 1425 1424 1423 1422 1421 1420 1419 1418 1417 1416 1415 1414 1413 1413 1412 1412 1411 1410 1410 1409 1409 1409 1409 1409 1409 1409 1410 1411 1411 1411 1412
1435 1435 1432 1431 1431 1430 1430 1429 1428 1427 1426 1425 1424 1423 1422 1421 1420 1419 1418 1417 1416 1415 1415 1414 1413 1412 1411 1410 1410 1409 1409 1408 1407 1407 1407 1406 1406 1407 1406 1406 1406 1406 1408 1408
1432 1432 1430 1429 1428 1428 1427 1426 1425 1424 1424 1423 1422 1421 1420 1419 1418 1417 1416 1415 1415 1414 1412 1412 1411 1410 1410 1409 1408 1407 1407 1406 1405 1404 1404 1404 1404 1404 1404 1404 1403 1403 1404 1405
1429 1428 1428 1427 1426 1425 1424 1423 1423 1422 1421 1421 1420 1419 1418 1417 1416 1416 1415 1414 1413 1411 1411 1410 1409 1409 1408 1407 1406 1405 1404 1404 1403 1403 1402 1402 1402 1402 1401 1401 1401 1401 1401 1401
1427 1426 1425 1424 1423 1423 1422 1422 1421 1420 1419 1419 1418 1417 1416 1415 1414 1414 1413 1412 1411 1410 1409 1408 1407 1407 1406 1405 1404 1403 1403 1402 1401 1401 1400 1400 1400 1399 1399 1399 1399 1398 1399 1399
1426 1425 1424 1423 1422 1421 1420 1420 1419 1418 1417 1417 1416 1415 1414 1413 1412 1412 1411 1410 1410 1409 1408 1407 1406 1405 1404 1403 1402 1402 1401 1400 1399 1399 1398 1398 1398 1397 1397 1397 1396 1396 1396 1396
1423 1423 1422 1421 1420 1420 1419 1418 1417 1416 1415 1415 1414 1413 1412 1412 1411 1410 1409 1408 1407 1406 1406 1405 1404 1403 1402 1402 1401 1400 1399 1398 1398 1397 1397 1396 1396 1395 1395 1394 1394 1394 1393 1393
1421 1421 1420 1419 1419 1418 1417 1416 1415 1414 1413 1413 1412 1411 1410 1410 1409 1408 1407 1406 1406 1405 1404 1403 1402 1402 1401 1400 1399 1398 1398 1397 1396 1396 1395 1394 1394 1393 1393 1392 1392 1391 1391 1390
1420 1419 1418 1417 1417 1416 1415 1414 1413 1412 1411 1411 1410 1409 1409 1408 1407 1406 1405 1404 1404 1404 1403 1402 1401 1400 1399 1398 1398 1397 1396 1395 1395 1394 1393 1393 1392 1391 1391 1390 1389 1389 1388 1387
1418 1418 1417 1416 1415 1414 1413 1412 1411 1410 1409 1409 1408 1407 1406 1406 1405 1404 1403 1403 1402 1402 1401 1400 1399 1398 1398 1397 1396 1395 1394 1393 1393 1392 1391 1391 1390 1389 1388 1387 1387 1386 1385 1385
1417 1416 1415 1414 1413 1412 1411 1410 1409 1408 1407 1407 1406 1405 1404 1403 1403 1402 1401 1401 1400 1399 1399 1398 1397 1397 1396 1395 1394 1393 1392 1391 1390 1390 1389 1389 1388 1387 1386 1385 1384 1383 1383 1382
1415 1414 1413 1412 1411 1410 1409 1408 1408 1407 1406 1405 1404 1403 1402 1401 1401 1400 1400 1399 1398 1397 1397 1396 1396 1395 1394 1393 1392 1391 1390 1389 1388 1388 1387 1386 1385 1385 1384 1382 1381 1380 1380 1379
1414 1413 1412 1411 1410 1408 1407 1407 1406 1405 1404 1403 1402 1401 1400 1400 1399 1398 1398 1397 1396 1395 1395 1394 1393 1393 1392 1391 1390 1389 1388 1387 1386 1385 1384 1383 1382 1381 1380 1380 1378 1377 1376 1375
1413 1412 1411 1410 1409 1407 1406 1405 1404 1403 1402 1400 1400 1399 1398 1398 1397 1396 1396 1395 1394 1394 1393 1392 1391 1390 1389 1388 1388 1387 1386 1385 1383 1382 1381 1380 1379 1378 1377 1376 1375 1374 1373 1372
1411 1410 1409 1408 1407 1406 1405 1403 1402 1401 1400 1399 1398 1397 1396 1396 1395 1394 1394 1393 1392 1392 1391 1390 1389 1388 1387 1386 1385 1384 1383 1382 1381 1380 1378 1377 1376 1375 1374 1373 1371 1370 1369 1368